sat.trackr.live / text

‹ back to catalog

STARLINK-32042

NORAD 60108 · 2024-117T

PAYLOAD ACTIVE UNKNOWN

§ Identity

Operator
Country
US
Launch date
2024-06-23
Launch site
AFETR
Launch vehicle
Mass (kg)
RCS (m²)

Purposes: comms

External: N2YO · Heavens-Above · Gunter

§ Orbital elements

Epoch: 2026-05-25T01:47:28.317984Z

Period
94.11 min
Inclination
53.1613°
Eccentricity
0.0001141
Mean motion
15.30196920 rev/d
Perigee alt
474.4 km
Apogee alt
476.0 km
Semi-major
6,853.4 km
B*
3.7180e-5
RAAN
42.1581°
Arg perigee
83.1203°
Mean anomaly
276.9927°
Rev number
10,858

§ Raw data

STARLINK-320421 60108U 24117T   26145.07463331  .00000742  00000+0  37180-4 0  99902 60108  53.1613  42.1581 0001141  83.1203 276.9927 15.30196920108581

JSON: /api/v1/satellites/60108 · /tle

For live sub-satellite position, see the globe view (requires WebGL).

§ Visibility from observer

Set your observer location to see the next 7 days of passes ≥ 10°. The values pass through the URL so the page stays shareable.

No JS? Fill the form by hand. The geolocation button needs JavaScript.